Location: Newark
(51.3318°N, 0.0053°E)
Time: 13:14:07
(UTC+00:00)

RS-44 - Pass Details

Date: 06 July 2022
Orbit: 1175 x 1510 km, 82.5° (Epoch: 18 August)

Event Time Altitude Azimuth Distance (km) Brightness Sun altitude
Rises 21:32:35 0° 228° (SW) 4,448 ? -8.8°
Reaches altitude 10° 21:35:44 10° 237° (WSW) 3,522 ? -9.1°
Maximum altitude 21:43:16 34° 300° (WNW) 2,265 ? -9.8°
Drops below altitude 10° 21:51:09 10° 2° (N) 3,676 ? -10.4°
Sets 21:54:32 0° 12° (NNE) 4,667 ? -10.7°
